EW8865 Weather Reports


time (UTC)temp
F
wind
direction
speed
knots
gust
knots
rain 1hr
in
rain 24hr
in
rain mn
in
humidity
%
barometer
mb
20260503212003 54 5 0.9 2.6 0.00 0.08 0.08 88 1010.3
20260503211504 54 5 0.0 1.7 0.00 0.08 0.08 88 1010.2
20260503211003 54 5 0.9 1.7 0.00 0.08 0.08 88 1010.1
20260503210504 55 5 0.9 1.7 0.00 0.08 0.08 88 1010.1
20260503210004 55 5 0.0 0.9 0.00 0.08 0.08 89 1010.0
20260503205504 55 5 0.0 1.7 0.00 0.08 0.08 89 1010.0
20260503204003 55 5 1.7 2.6 0.00 0.08 0.08 89 1009.9
20260503203505 55 0 0.9 2.6 0.00 0.08 0.08 89 1009.9
20260503203004 55 0 0.9 2.6 0.00 0.08 0.08 89 1009.9
20260503202503 55 0 0.0 2.6 0.00 0.08 0.08 88 1009.9
20260503201504 55 0 0.9 2.6 0.00 0.08 0.08 88 1009.8
20260503201004 55 0 1.7 2.6 0.00 0.08 0.08 88 1009.8
20260503200503 55 0 0.9 2.6 0.00 0.08 0.08 88 1009.7
20260503195504 55 0 0.0 0.9 0.00 0.08 0.08 87 1009.6
20260503193503 56 358 0.0 1.7 0.00 0.09 0.08 87 1009.4
20260503193003 56 354 0.9 1.7 0.00 0.09 0.08 87 1009.4
20260503191004 56 61 1.7 2.6 0.00 0.09 0.08 87 1009.2
20260503190504 56 61 0.0 1.7 0.00 0.09 0.08 87 1009.2
20260503190004 56 61 0.9 2.6 0.00 0.09 0.08 87 1009.2
20260503185003 56 61 0.9 2.6 0.02 0.10 0.08 86 1009.1
20260503183004 57 52 0.9 2.6 0.08 0.12 0.08 86 1009.0
20260503182503 57 54 1.7 2.6 0.08 0.12 0.08 86 1008.9
20260503182005 57 28 1.7 2.6 0.08 0.12 0.08 85 1008.9
20260503180504 57 353 2.6 4.3 0.08 0.13 0.08 83 1008.8
20260503180004 58 350 2.6 5.2 0.08 0.13 0.08 81 1008.8
20260503171004 61 0 3.5 7.8 0.00 0.10 0.00 72 1008.6
20260503170503 62 356 1.7 7.0 0.00 0.12 0.00 73 1008.6
20260503151004 66 139 3.5 10.4 0.00 0.42 0.00 59 1008.4
20260503131004 65 159 4.3 8.7 0.00 0.43 0.00 67 1008.8
20260503130503 64 158 5.2 8.7 0.00 0.43 0.00 67 1008.8
20260503090503 59 122 1.7 2.6 0.00 0.43 0.00 78 1009.3
20260503081504 55 267 0.0 2.6 0.00 0.43 0.00 94 1009.3
20260503081004 54 270 1.7 2.6 0.00 0.43 0.00 94 1009.3
20260503080504 53 271 0.9 2.6 0.00 0.43 0.00 94 1009.2
20260503072504 51 294 0.0 1.7 0.00 0.43 0.00 94 1009.3
20260503072004 51 294 0.0 1.7 0.00 0.43 0.00 94 1009.3
20260503071504 51 294 0.9 2.6 0.00 0.43 0.00 94 1009.3
20260503071004 50 294 0.0 1.7 0.00 0.43 0.00 94 1009.3
20260503070503 50 295 0.0 0.9 0.00 0.43 0.00 94 1009.4
20260503055004 48 309 0.0 1.7 0.00 0.43 0.00 94 1009.3
20260503054504 48 309 0.9 1.7 0.00 0.43 0.00 94 1009.2
20260503054003 48 309 0.9 1.7 0.00 0.43 0.00 94 1009.2
20260503053503 47 309 0.0 0.9 0.00 0.43 0.00 94 1009.1
20260503053004 47 309 0.0 0.9 0.00 0.43 0.00 94 1009.0
20260503052504 47 310 0.0 1.7 0.00 0.43 0.00 94 1009.0
20260503052004 47 316 0.0 1.7 0.00 0.43 0.00 94 1008.9
20260503051504 47 317 0.9 1.7 0.00 0.43 0.00 93 1009.0
20260503051004 47 318 0.9 2.6 0.00 0.43 0.00 93 1009.1
20260503050504 47 317 1.7 4.3 0.00 0.43 0.00 93 1009.1
20260503050004 47 318 1.7 4.3 0.00 0.43 0.00 93 1009.0
20260503045504 47 317 1.7 2.6 0.00 0.43 0.00 93 1009.0
20260503045004 47 318 1.7 4.3 0.00 0.43 0.00 93 1009.0
20260503044503 47 317 2.6 4.3 0.00 0.43 0.00 92 1009.1
20260503044004 47 253 0.0 2.6 0.00 0.43 0.00 92 1009.1
20260503043503 47 252 0.0 0.0 0.00 0.43 0.00 92 1009.1
20260503043003 47 252 0.0 0.0 0.00 0.43 0.00 93 1009.1
20260503042503 47 229 0.0 0.0 0.00 0.43 0.00 93 1009.1
20260503042005 47 229 0.0 0.0 0.00 0.43 0.00 92 1009.0
20260503041503 47 229 0.0 0.0 0.00 0.43 0.00 92 1009.1
20260503041004 48 229 0.0 0.0 0.00 0.43 0.00 92 1009.1
20260503035503 48 229 0.0 0.0 0.00 0.43 0.00 92 1009.0
20260503035004 48 229 0.0 0.0 0.00 0.43 0.00 92 1009.0
20260503034503 48 229 0.0 0.0 0.00 0.43 0.00 92 1009.0
20260503033504 49 229 0.0 0.0 0.00 0.43 0.00 92 1009.1
20260503033004 49 229 0.0 0.0 0.00 0.43 0.00 92 1009.1
20260503032504 49 229 0.0 0.0 0.00 0.43 0.00 92 1009.1
20260503031503 50 229 0.0 0.0 0.00 0.43 0.00 92 1009.3
20260503031004 50 229 0.0 0.9 0.00 0.43 0.00 92 1009.4
20260503030504 50 229 0.0 0.0 0.00 0.43 0.00 93 1009.4
20260503030004 50 229 0.9 1.7 0.00 0.43 0.00 93 1009.4
20260503025503 50 229 1.7 2.6 0.00 0.43 0.00 92 1009.3
20260503025003 50 229 1.7 2.6 0.00 0.43 0.00 92 1009.3
20260503024503 50 228 2.6 4.3 0.00 0.43 0.00 92 1009.2
20260503024003 50 220 1.7 2.6 0.00 0.43 0.00 93 1009.3
20260503023504 50 219 1.7 5.2 0.00 0.43 0.00 93 1009.3
20260503023005 50 219 2.6 5.2 0.00 0.43 0.00 92 1009.3
20260503022504 50 219 1.7 5.2 0.00 0.43 0.00 93 1009.2
20260503022004 50 236 1.7 4.3 0.00 0.43 0.00 93 1009.3
20260503021503 50 242 0.9 2.6 0.00 0.43 0.00 93 1009.4
20260503020504 50 242 1.7 2.6 0.00 0.43 0.00 92 1009.3
20260503020003 50 240 1.7 2.6 0.00 0.43 0.00 92 1009.4
20260503015005 50 275 0.0 1.7 0.00 0.43 0.00 92 1009.4
20260503013004 51 244 0.0 0.0 0.00 0.43 0.00 92 1009.6
20260503012503 51 244 0.0 1.7 0.00 0.43 0.00 92 1009.6
20260503011504 51 244 0.9 2.6 0.00 0.43 0.00 92 1009.6
20260503011005 52 252 0.9 2.6 0.00 0.43 0.00 93 1009.7
20260503010504 52 267 0.0 0.9 0.00 0.43 0.00 93 1009.7
20260503010005 52 267 0.0 1.7 0.00 0.43 0.00 93 1009.7
20260503005004 52 270 2.6 6.1 0.00 0.43 0.00 93 1009.7
20260503004504 52 257 1.7 2.6 0.00 0.43 0.00 92 1009.7
20260503004004 52 265 2.6 6.1 0.00 0.43 0.00 92 1009.7
20260503003504 52 241 1.7 5.2 0.00 0.43 0.00 92 1009.9
20260503003004 52 238 1.7 2.6 0.00 0.43 0.00 92 1010.0
20260503002503 52 238 1.7 2.6 0.00 0.43 0.00 92 1010.0
20260503002005 52 238 0.9 2.6 0.00 0.43 0.00 92 1010.0
20260503001503 52 238 1.7 2.6 0.00 0.43 0.00 92 1010.0
20260503001003 52 236 2.6 4.3 0.00 0.43 0.00 92 1010.1
20260503000504 52 240 1.7 2.6 0.00 0.43 0.00 92 1010.1
20260502235504 51 238 0.0 0.0 0.00 0.43 0.00 92 1010.1
20260502235004 52 238 0.0 0.0 0.00 0.43 0.00 92 1010.0
20260502234004 52 238 0.0 0.0 0.00 0.43 0.00 92 1010.2
20260502233505 52 238 0.0 0.0 0.00 0.43 0.00 92 1010.3
20260502233004 52 238 0.0 0.0 0.00 0.43 0.00 92 1010.3
20260502232504 52 238 0.0 0.0 0.00 0.43 0.00 92 1010.2
20260502232005 52 238 0.0 0.0 0.00 0.43 0.00 92 1010.3
20260502231504 52 238 0.0 0.0 0.00 0.43 0.00 92 1010.3
20260502231004 52 238 0.0 0.0 0.00 0.43 0.00 92 1010.3
20260502230504 52 238 0.0 0.0 0.00 0.43 0.00 92 1010.4
20260502230004 52 238 0.0 2.6 0.00 0.43 0.00 92 1010.4
20260502225504 52 242 1.7 2.6 0.00 0.43 0.43 92 1010.5
20260502225004 52 242 1.7 2.6 0.00 0.43 0.43 92 1010.6
20260502224004 52 204 1.7 2.6 0.00 0.43 0.43 92 1010.6
20260502223004 52 182 1.7 4.3 0.00 0.43 0.43 92 1010.6
20260502222504 52 149 0.0 2.6 0.00 0.43 0.43 92 1010.6
20260502222003 52 140 0.0 0.0 0.00 0.43 0.43 92 1010.6
20260502221503 52 140 0.0 0.0 0.00 0.43 0.43 92 1010.5
20260502221003 52 140 0.0 0.0 0.00 0.43 0.43 92 1010.5
20260502215504 52 140 0.0 0.0 0.00 0.43 0.43 91 1010.5
20260502215004 52 140 0.0 0.0 0.00 0.43 0.43 91 1010.5
20260502214504 52 140 0.0 0.0 0.00 0.43 0.43 91 1010.5
20260502212503 52 27 0.0 0.0 0.00 0.43 0.43 90 1010.4